EW7554 Weather Reports


time (UTC)temp
C
wind
direction
speed
KPH
gust
KPH
rain 1hr
cm
rain 24hr
cm
rain mn
cm
humidity
%
barometer
mb
20260904073033 25 147 0.0 6.4 0.00 0.08 0.00 83 1008.3
20260904071523 25 150 0.0 3.2 0.00 0.08 0.00 83 1008.3
20260904070023 25 150 0.0 3.2 0.00 0.08 0.00 82 1008.4
20260904064520 25 150 1.6 4.8 0.00 0.08 0.00 82 1008.3
20260904063020 25 151 3.2 8.0 0.00 0.08 0.00 81 1008.4
20260904061519 25 154 3.2 9.7 0.00 0.08 0.00 81 1008.3
20260904060024 25 157 3.2 9.7 0.00 0.08 0.00 81 1008.4
20260904054517 25 159 4.8 9.7 0.00 0.08 0.00 80 1008.4
20260904053020 25 159 3.2 8.0 0.00 0.08 0.00 80 1008.3
20260904051513 26 146 3.2 9.7 0.00 0.08 0.00 79 1008.3
20260904050010 26 149 3.2 8.0 0.00 0.08 0.00 79 1008.2
20260904044510 26 153 3.2 12.9 0.00 0.08 0.08 78 1008.2
20260904043015 26 152 3.2 9.7 0.00 0.08 0.08 78 1008.1
20260904041509 26 149 3.2 9.7 0.00 0.08 0.08 77 1008.1
20260904040009 26 166 6.4 12.9 0.00 0.08 0.08 76 1008.1
20260904034508 26 163 3.2 11.3 0.00 0.08 0.08 75 1008.2
20260904033007 27 152 3.2 11.3 0.00 0.08 0.08 74 1008.1
20260904031507 27 163 4.8 14.5 0.00 0.08 0.08 73 1008.2
20260904030007 27 175 6.4 14.5 0.00 0.08 0.08 73 1008.3
20260904024506 27 194 6.4 14.5 0.00 0.08 0.08 74 1008.2
20260904023006 27 101 1.6 4.8 0.00 0.08 0.08 72 1008.2
20260904021512 27 142 1.6 11.3 0.00 0.08 0.08 72 1008.1
20260904020006 27 157 3.2 11.3 0.00 0.08 0.08 71 1008.0
20260904014504 27 167 6.4 12.9 0.00 0.08 0.08 70 1007.9
20260904013004 28 167 6.4 14.5 0.00 0.08 0.08 69 1007.8
20260904011503 28 171 8.0 14.5 0.00 0.08 0.08 68 1007.7
20260904010005 28 142 8.0 14.5 0.00 0.08 0.08 68 1007.5
20260904004502 28 171 6.4 14.5 0.00 0.08 0.08 67 1007.5
20260904003002 28 174 8.0 19.3 0.00 0.08 0.08 65 1007.5
20260904001501 29 170 6.4 14.5 0.00 0.08 0.08 64 1007.5
20260904000003 29 184 12.9 19.3 0.00 0.08 0.08 63 1007.6
20260903234601 30 140 11.3 25.7 0.00 0.08 0.08 62 1007.6
20260903233113 30 175 11.3 27.4 0.00 0.08 0.08 61 1007.5
20260903231600 30 157 12.9 24.1 0.00 0.08 0.08 61 1007.2
20260903230059 30 183 16.1 32.2 0.00 0.08 0.08 59 1006.8
20260903224559 30 169 16.1 27.4 0.00 0.08 0.08 59 1006.9
20260903223113 30 142 14.5 25.7 0.00 0.08 0.08 58 1006.9
20260903221556 30 168 14.5 22.5 0.00 0.08 0.08 58 1007.0
20260903220155 30 159 17.7 35.4 0.00 0.08 0.08 58 1007.0
20260903214553 30 163 14.5 27.4 0.00 0.08 0.08 59 1007.0
20260903213052 30 158 14.5 27.4 0.00 0.08 0.08 59 1007.2
20260903211555 30 169 14.5 32.2 0.00 0.08 0.08 59 1007.4
20260903210058 29 169 12.9 27.4 0.00 0.08 0.08 62 1007.2
20260903204549 29 166 11.3 22.5 0.00 0.08 0.08 59 1008.0
20260903203055 29 169 9.7 27.4 0.00 0.08 0.08 59 1007.9
20260903201548 30 171 14.5 25.7 0.00 0.08 0.08 58 1007.9
20260903200047 30 134 16.1 25.7 0.00 0.08 0.08 58 1007.9
20260903194547 30 168 16.1 29.0 0.00 0.08 0.08 59 1007.9
20260903193042 30 163 11.3 22.5 0.00 0.08 0.08 62 1008.2
20260903191540 29 151 8.0 14.5 0.03 0.08 0.08 68 1007.9
20260903190037 28 158 3.2 16.1 0.08 0.08 0.08 72 1008.2
20260903184533 27 26 3.2 8.0 0.08 0.08 0.08 79 1008.7
20260903183031 26 36 3.2 8.0 0.08 0.08 0.08 79 1008.7
20260903181532 25 111 1.6 4.8 0.05 0.05 0.05 78 1008.9
20260903180037 26 126 0.0 11.3 0.00 0.00 0.00 73 1008.8
20260903174528 26 164 6.4 9.7 0.00 0.00 0.00 69 1008.8
20260903173028 26 96 4.8 12.9 0.00 0.00 0.00 69 1008.8
20260903171535 27 165 6.4 16.1 0.00 0.00 0.00 68 1009.2
20260903170036 26 123 4.8 14.5 0.00 0.00 0.00 73 1009.5
20260903164524 25 167 4.8 8.0 0.00 0.00 0.00 73 1009.6
20260903163026 26 167 4.8 16.1 0.00 0.00 0.00 71 1009.5
20260903161522 26 156 6.4 14.5 0.00 0.00 0.00 70 1009.5
20260903160022 26 145 4.8 12.9 0.00 0.00 0.00 67 1009.5
20260903154521 26 139 4.8 11.3 0.00 0.00 0.00 66 1009.4
20260903153018 26 156 1.6 8.0 0.00 0.00 0.00 66 1009.4
20260903151517 26 170 4.8 9.7 0.00 0.00 0.00 68 1009.6
20260903150034 26 94 1.6 6.4 0.00 0.00 0.00 68 1009.3
20260903144523 26 132 3.2 8.0 0.00 0.00 0.00 66 1009.3
20260903143023 26 198 3.2 6.4 0.00 0.00 0.00 68 1009.3
20260903141508 25 152 3.2 11.3 0.00 0.00 0.00 69 1009.4
20260903140013 25 131 1.6 11.3 0.00 0.00 0.00 69 1009.4
20260903134501 25 159 3.2 11.3 0.00 0.00 0.00 70 1009.6
20260903133106 24 107 1.6 4.8 0.00 0.00 0.00 74 1009.6
20260903131555 24 163 4.8 9.7 0.00 0.00 0.00 74 1009.7
20260903124557 24 165 14.5 20.9 0.00 0.00 0.00 74 1009.4
20260903123051 24 187 4.8 12.9 0.00 0.00 0.00 74 1008.7
20260903121549 24 190 6.4 14.5 0.00 0.00 0.00 74 1008.6
20260903120052 24 154 4.8 9.7 0.00 0.00 0.00 76 1008.9
20260903114543 24 165 4.8 16.1 0.00 0.00 0.00 79 1009.6
20260903113050 23 163 6.4 11.3 0.00 0.00 0.00 82 1009.6
20260903111541 23 173 4.8 8.0 0.00 0.00 0.00 82 1009.6
20260903110040 23 141 6.4 11.3 0.00 0.00 0.00 83 1009.4
20260903104540 23 171 6.4 9.7 0.00 0.00 0.00 83 1009.6
20260903103039 22 167 6.4 12.9 0.00 0.00 0.00 85 1009.9
20260903101538 22 143 3.2 8.0 0.00 0.00 0.00 85 1009.4
20260903100037 22 167 4.8 9.7 0.00 0.00 0.00 85 1009.5
20260903094544 22 137 3.2 6.4 0.00 0.00 0.00 85 1009.4
20260903093034 22 69 0.0 4.8 0.00 0.00 0.00 84 1009.2
20260903091534 23 73 1.6 4.8 0.00 0.00 0.00 84 1009.4
20260903090033 23 70 1.6 6.4 0.00 0.00 0.00 83 1009.1
20260903084542 23 97 3.2 8.0 0.00 0.00 0.00 83 1009.1
20260903083028 23 66 3.2 6.4 0.00 0.00 0.00 82 1009.2
20260903081527 23 41 3.2 6.4 0.00 0.00 0.00 82 1009.4
20260903080026 23 70 3.2 9.7 0.00 0.00 0.00 82 1009.4
20260903074523 23 65 1.6 8.0 0.00 0.08 0.00 81 1009.6